User: anonymous   Login
Location: Holyhead Bay
(53.3667°N, 4.6667°W)
Time: 22:10:16
(UTC+00:00)
Language:

ISS - Orbit

View from above orbital plane
View from above orbital plane
View from above satellite
View from above satellite

Ground track
Ground track

The orbit data is extracted from the following two-line orbital elements,

1 25544U 98067A   21059.58690953  .00001770  00000-0  40256-4 0  9998
2 25544  51.6460 159.8699 0003165  60.6110  47.2414 15.49019682271760
Epoch (UTC): 28 February 2021 14:05:08
Eccentricity: 0.0003165
inclination: 51.6460°
perigee height: 417 km
apogee height: 422 km
right ascension of ascending node: 159.8699°
argument of perigee: 60.6110°
revolutions per day: 15.49019682
mean anomaly at epoch: 47.2414°
orbit number at epoch: 27176

The dashed part of the orbit path shows where the satellite is in the earth's shadow,  

DLR